Vertical_Velocity
-1 -0 1 1 3 9 -4 9 -18 10 3 -3 -1 -18 -3 3 4 12 4 0 14 -2 15 4 7 -29 -25 28 36 -35 10 25 10 -12 27 34 19 -3 1 -10 4 5 -3 -94
1 -0 0 2 4 1 10 -5 -6 7 21 -17 -12 9 -15 -8 8 -4 -4 -9 -6 -1 4 4 -6 -20 20 7 9 -25 1 -53 -0 14 14 -13 -69 -5 17 18 3 -42 12 -57
3 1 1 2 2 1 2 1 -6 -4 -2 -2 1 -7 11 -4 -1 4 10 -7 13 5 34 2 -14 -16 3 -0 -2 9 39 20 -2 -16 -11 76 -1 -13 -1 8 11 -34 -59 39
3 4 1 1 0 3 6 -13 -32 -3 -22 -28 -18 1 29 4 -8 -18 22 9 22 -5 -2 8 -11 -6 6 -1 0 -2 -6 -22 -11 -25 24 8 13 5 8 4 -43 11 13 -40
2 3 4 -6 0 9 -7 -7 -22 -15 -0 11 7 20 -15 0 10 -3 -7 -10 4 13 2 -10 -3 4 5 1 12 3 3 -22 17 -20 17 3 -1 6 7 -48 -4 -13 10 -57
0 -2 3 2 3 1 -1 -6 4 5 0 5 3 -25 9 -10 26 12 -1 -6 27 16 -21 -1 18 6 7 16 11 0 0 -1 -1 -65 39 35 -2 -115 32 21 -3 -6 -41 64
1 2 2 3 7 4 4 11 23 12 -14 -3 -8 4 4 6 -3 -6 15 17 13 -11 -14 9 -1 9 25 11 -3 8 6 1 11 -3 22 -17 -117 45 -10 -16 3 -1 -16 5
-2 -1 0 1 4 -0 0 8 -4 -10 -11 17 6 -8 4 9 11 -16 7 11 4 -5 22 24 18 6 2 -7 5 17 -5 17 2 -9 9 -14 -38 -5 2 14 -5 8 -14 10
1 6 8 12 8 -3 3 4 7 9 6 -15 7 -3 3 3 -7 6 -11 3 5 12 3 15 -5 1 -0 2 3 -2 22 27 8 -5 -4 -33 10 5 26 38 -123 34 -9 -0
-6 -4 -9 -16 -3 -6 5 -1 -0 10 -5 -2 -6 -12 -1 5 -3 -11 -0 1 -12 2 9 23 -7 -7 7 -2 5 1 -3 16 4 9 -1 -38 13 14 21 -27 -60 -5 3 7
-4 -1 -7 2 19 6 -1 -3 -5 -5 5 10 3 3 -3 1 4 3 -4 18 13 31 20 -6 23 -10 -4 3 2 -4 7 12 -1 13 9 -54 6 -6 -23 38 1 -2 4 0
-2 -6 1 4 8 4 2 -1 -2 4 23 14 13 8 -2 -10 -6 4 2 -7 7 5 20 27 27 -4 5 -8 -16 0 -16 -7 12 -1 2 19 14 -4 16 -17 -1 1 11 -2
-2 -0 -1 1 6 2 38 22 23 13 -1 9 4 7 2 -2 -4 -1 4 -5 2 -1 16 3 15 -2 8 1 -5 20 -9 0 -14 5 -1 3 10 -11 -0 5 -1 -2 3 4
1 1 1 1 2 2 2 2 3 -0 -3 -11 2 2 -1 3 1 -4 11 9 10 0 14 9 8 11 4 7 10 -5 7 7 4 5 -9 -4 0 -2 1 -2 -0 -2 4 -2
3 1 1 3 -1 2 6 5 3 1 2 -2 1 6 -3 -5 -3 -6 -2 1 12 9 4 7 -5 -3 5 5 6 -12 -18 -13 -22 -10 13 5 2 20 -1 -4 5 -5 -3 -1
3 0 3 -1 7 -1 2 -5 9 4 -3 -6 1 0 -3 -11 -11 -4 -4 -8 -3 -1 5 -0 -0 7 -10 -12 -15 -3 -10 -3 10 3 16 -3 7 4 -3 4 9 1 1 -1
-1 0 -0 2 2 5 11 4 4 15 24 9 -9 -2 -7 -5 -6 -8 -8 -2 -11 -3 -2 -2 18 13 0 -14 -9 10 1 -1 -7 2 2 -3 -24 20 19 13 5 1 1 -0
3 -2 -2 -2 -2 1 2 -2 -7 -2 3 1 -9 -12 -2 1 -13 -12 2 -8 0 4 4 -10 -19 25 3 -6 1 2 4 5 -5 -2 -8 3 4 2 -1 -3 2 3 -6 -5
2 2 -2 -1 2 2 -3 0 -1 0 1 -4 -4 -3 -0 -3 -6 -11 -2 -2 -3 -3 -17 -20 8 16 10 -9 -12 2 16 -0 2 -2 1 3 0 3 0 1 9 4 -1 5
-0 3 2 -1 -3 0 -0 -1 -1 -3 -4 -4 -4 -6 0 -5 7 11 11 11 10 -7 -8 6 -8 -13 2 3 -5 9 -4 -0 -2 9 2 -4 -5 5 -5 2 10 1 3 1
-1 1 1 -1 2 3 0 -1 3 -0 -6 -6 1 -1 1 4 4 12 11 10 5 3 -1 -2 -17 -26 10 -4 1 -13 1 4 2 -7 -10 2 12 19 9 5 4 2 2 7
-1 1 1 2 -1 -0 1 1 -2 -3 -7 -1 2 4 -6 1 2 2 6 10 20 23 6 18 -6 0 -12 -2 12 10 8 -5 -1 -1 9 4 -2 3 5 8 5 3 2 11
0 0 2 0 -1 -1 -0 -0 -6 -4 -1 2 3 1 4 3 5 2 4 2 13 37 6 -30 -10 1 14 -7 -12 1 -10 -2 4 13 13 16 10 5 2 8 1 -8 -8 3
0 -1 1 -4 1 2 1 -0 1 0 -3 -2 -0 0 4 5 3 1 0 5 5 -5 -4 -2 7 11 4 15 29 3 8 -8 15 14 -1 2 6 15 6 1 7 1 1 -3
-2 -1 -0 3 1 2 1 3 1 -2 -0 -1 2 4 7 4 2 3 5 7 6 0 -6 -14 -12 -3 6 -5 19 20 8 14 -4 -1 -4 -1 -9 -3 -2 -4 4 8 7 2
-3 -2 -0 1 1 3 3 1 2 1 2 2 2 3 5 7 5 5 6 2 4 11 5 4 7 3 4 11 -9 -10 -3 -7 -7 -7 -6 -4 -3 -2 -1 -4 2 1 5 1
-0 -0 -0 0 -0 1 1 3 1 2 1 0 -0 0 0 3 4 8 5 4 5 2 9 5 6 5 6 11 10 7 6 7 4 3 3 1 -1 1 1 3 10 6 -5 -3
Height
5407 5410 5414 5420 5426 5434 5439 5449 5454 5477 5476 5474 5477 5477 5487 5498 5514 5522 5529 5544 5556 5565 5575 5581 5586 5595 5615 5636 5646 5647 5663 5666 5669 5677 5692 5700 5702 5709 5719 5716 5720 5724 5730 5724
5401 5403 5407 5412 5417 5423 5433 5439 5452 5461 5463 5460 5468 5474 5481 5488 5498 5506 5520 5532 5542 5558 5566 5569 5577 5588 5613 5613 5622 5629 5644 5641 5655 5662 5666 5675 5680 5693 5702 5703 5707 5709 5714 5713
5397 5399 5402 5406 5411 5419 5426 5434 5439 5447 5448 5457 5460 5462 5472 5477 5489 5497 5508 5525 5535 5547 5554 5559 5571 5581 5593 5599 5605 5617 5628 5631 5635 5642 5659 5673 5671 5680 5688 5689 5690 5700 5699 5711
5396 5397 5399 5402 5408 5416 5419 5423 5429 5439 5443 5448 5454 5456 5465 5471 5477 5486 5500 5513 5522 5533 5547 5552 5562 5574 5580 5584 5592 5600 5605 5608 5620 5634 5646 5649 5655 5664 5672 5672 5682 5683 5688 5694
5394 5396 5399 5402 5407 5410 5411 5416 5422 5430 5437 5439 5441 5444 5453 5460 5469 5473 5484 5496 5518 5527 5537 5544 5556 5564 5569 5576 5581 5586 5593 5595 5609 5618 5628 5630 5634 5643 5651 5655 5661 5667 5675 5676
5388 5390 5392 5395 5399 5400 5401 5407 5413 5419 5424 5427 5431 5435 5448 5456 5461 5465 5476 5494 5506 5511 5526 5540 5551 5554 5559 5566 5570 5575 5580 5581 5590 5601 5611 5610 5606 5624 5635 5639 5647 5653 5655 5670
5383 5382 5383 5384 5387 5389 5394 5399 5404 5407 5410 5417 5427 5432 5439 5445 5451 5458 5474 5481 5486 5512 5522 5526 5534 5540 5545 5553 5558 5563 5569 5573 5580 5591 5588 5581 5605 5622 5623 5627 5634 5641 5646 5653
5377 5375 5374 5374 5376 5379 5384 5390 5392 5395 5401 5411 5416 5425 5433 5436 5442 5442 5448 5462 5485 5499 5510 5515 5519 5525 5531 5536 5543 5552 5559 5565 5565 5569 5573 5580 5590 5607 5611 5612 5621 5628 5637 5643
5371 5367 5361 5358 5365 5372 5376 5381 5383 5390 5396 5403 5412 5419 5425 5429 5434 5434 5441 5460 5477 5488 5490 5495 5497 5507 5518 5524 5532 5539 5547 5550 5555 5559 5562 5565 5595 5595 5602 5603 5597 5618 5618 5622
5367 5360 5349 5348 5359 5369 5373 5375 5377 5385 5393 5400 5407 5414 5421 5425 5427 5432 5439 5448 5458 5469 5477 5484 5491 5498 5507 5512 5520 5530 5534 5537 5542 5548 5554 5559 5575 5581 5584 5583 5606 5608 5607 5611
5365 5361 5358 5358 5363 5367 5371 5373 5377 5384 5391 5399 5404 5410 5415 5420 5424 5427 5435 5440 5445 5453 5462 5473 5480 5484 5493 5500 5508 5516 5522 5527 5532 5538 5543 5552 5560 5563 5571 5585 5588 5592 5598 5601
5363 5361 5359 5360 5360 5367 5369 5374 5378 5382 5388 5394 5398 5403 5408 5414 5419 5421 5422 5427 5434 5440 5452 5459 5465 5472 5479 5488 5495 5503 5508 5515 5525 5532 5541 5550 5552 5554 5560 5568 5576 5581 5586 5590
5361 5359 5359 5360 5363 5365 5369 5372 5376 5380 5385 5389 5393 5398 5402 5407 5410 5411 5413 5418 5419 5427 5436 5443 5453 5462 5465 5473 5482 5493 5498 5507 5512 5521 5532 5540 5546 5546 5550 5557 5562 5569 5575 5581
5356 5356 5357 5358 5360 5363 5366 5369 5372 5375 5378 5383 5388 5391 5396 5400 5404 5405 5402 5404 5407 5412 5421 5427 5431 5444 5451 5459 5469 5476 5485 5495 5504 5512 5519 5527 5536 5541 5544 5548 5552 5559 5564 5568
5351 5353 5353 5354 5356 5358 5363 5366 5368 5371 5375 5378 5382 5386 5390 5394 5397 5397 5398 5398 5396 5398 5403 5414 5422 5431 5440 5449 5455 5463 5471 5485 5494 5507 5519 5521 5527 5531 5529 5538 5542 5546 5553 5557
5347 5348 5349 5351 5352 5356 5358 5359 5362 5365 5367 5370 5373 5378 5382 5385 5388 5389 5390 5389 5389 5391 5391 5401 5411 5423 5429 5437 5444 5459 5469 5476 5488 5496 5504 5509 5517 5515 5522 5528 5532 5536 5542 5547
5344 5344 5344 5345 5347 5349 5351 5353 5355 5358 5360 5360 5364 5369 5372 5375 5377 5380 5381 5380 5379 5378 5380 5389 5406 5413 5417 5424 5436 5453 5459 5467 5476 5485 5489 5498 5509 5513 5513 5517 5522 5526 5531 5536
5340 5341 5342 5343 5344 5346 5347 5348 5348 5350 5351 5352 5356 5362 5365 5366 5369 5369 5368 5367 5364 5363 5367 5377 5394 5400 5404 5411 5427 5440 5447 5456 5465 5471 5476 5487 5493 5498 5501 5506 5510 5515 5521 5523
5336 5337 5338 5340 5342 5343 5343 5342 5343 5343 5346 5347 5350 5353 5355 5356 5358 5357 5357 5356 5355 5355 5358 5371 5379 5379 5384 5411 5423 5433 5439 5443 5454 5459 5463 5473 5479 5485 5490 5494 5499 5503 5507 5510
5332 5333 5334 5335 5337 5339 5339 5339 5339 5339 5341 5342 5345 5347 5349 5351 5350 5350 5351 5349 5350 5350 5355 5363 5366 5372 5391 5402 5415 5422 5429 5434 5441 5449 5452 5461 5469 5474 5479 5483 5488 5490 5493 5496
5328 5328 5328 5330 5332 5334 5335 5335 5337 5338 5339 5341 5342 5342 5343 5344 5344 5344 5344 5343 5344 5345 5349 5355 5361 5377 5391 5397 5406 5410 5418 5425 5433 5438 5445 5451 5458 5463 5468 5472 5476 5479 5483 5486
5324 5324 5324 5325 5327 5328 5330 5330 5332 5334 5336 5336 5337 5338 5338 5339 5338 5339 5338 5338 5340 5342 5347 5350 5360 5377 5386 5389 5396 5403 5411 5418 5424 5431 5437 5442 5446 5450 5456 5461 5464 5470 5476 5479
5319 5320 5321 5321 5322 5323 5323 5323 5327 5330 5331 5331 5331 5332 5333 5333 5334 5334 5335 5335 5336 5337 5342 5351 5364 5372 5378 5382 5390 5398 5406 5411 5416 5421 5428 5433 5435 5439 5444 5450 5455 5460 5464 5465
5315 5315 5316 5316 5318 5319 5319 5321 5323 5325 5327 5327 5327 5327 5327 5329 5330 5331 5332 5334 5336 5337 5342 5350 5356 5361 5367 5375 5380 5388 5394 5405 5410 5413 5417 5421 5426 5429 5434 5440 5445 5449 5452 5454
5310 5311 5311 5313 5313 5314 5315 5317 5319 5321 5322 5323 5324 5325 5326 5326 5326 5328 5330 5331 5333 5336 5342 5348 5354 5360 5363 5371 5376 5380 5387 5393 5398 5403 5408 5412 5417 5421 5425 5431 5436 5439 5441 5444
5306 5307 5308 5308 5309 5310 5311 5313 5315 5317 5318 5319 5321 5322 5324 5324 5324 5325 5326 5329 5330 5333 5338 5343 5349 5354 5360 5366 5370 5375 5379 5384 5389 5393 5397 5403 5408 5411 5416 5420 5425 5428 5432 5435
5303 5304 5304 5305 5305 5306 5307 5308 5310 5311 5313 5314 5317 5318 5320 5321 5322 5324 5325 5326 5328 5330 5334 5340 5344 5349 5353 5358 5363 5368 5374 5378 5383 5387 5391 5395 5400 5403 5407 5412 5415 5419 5423 5427